DateTimeUTC,F1_A11,F1_S11,BsB_S11,BsG_S11,BsR_S11,BbsB_S11,BbsG_S11,BbsR_S11,BaB_A11,BaG_A11,BaR_A11,Tu_S11,T_S11,Uu_S11,U_S11,P_S11,T1_A11
2021-04-27T08:00:00Z,00040200,20000000,,,,,,,0000.22,0000.30,0000.21,17.9,25.0,04.0,02.6,0684.1,31.0
2021-04-27T08:01:00Z,00040200,20000000,,,,,,,-000.08,-000.37,-000.20,17.9,25.0,04.0,02.6,0684.1,31.0
2021-04-27T08:02:00Z,00040200,20000000,,,,,,,0000.06,0000.10,0000.09,17.9,25.0,04.0,02.6,0684.1,31.0
2021-04-27T08:03:00Z,00040200,60000000,,,,,,,0000.22,0000.78,0000.10,17.9,25.0,04.0,02.6,0684.1,31.0
2021-04-27T08:04:00Z,00040200,40000000,0001.78,0001.47,0000.91,0000.22,0000.28,-000.17,0000.78,0000.51,0000.64,18.0,24.8,04.1,02.7,0685.0,31.0
2021-04-27T08:05:00Z,00040200,00000000,0002.48,0001.72,0001.07,0000.09,0000.28,0000.01,0000.40,0000.37,0000.16,18.0,24.8,04.1,02.7,0685.1,31.1
2021-04-27T08:06:00Z,00040200,00000000,0002.18,0001.74,0001.11,0000.59,0000.38,0000.33,0000.68,0000.43,0000.40,18.1,24.8,04.1,02.7,0685.1,31.1
2021-04-27T08:07:00Z,00040200,00000000,0002.04,0001.32,0001.02,-000.15,0000.09,0000.23,0000.53,0000.46,0000.52,18.1,24.8,04.1,02.7,0685.1,31.1
2021-04-27T08:08:00Z,00040200,00000000,0002.57,0001.58,0001.14,0000.55,0000.47,0000.13,0000.49,0000.78,0000.45,18.1,24.8,04.2,02.8,0685.1,31.1
2021-04-27T08:09:00Z,00040200,00000000,0002.48,0001.51,0001.21,-000.30,0000.49,0000.37,0000.91,0000.60,0000.65,18.1,24.8,04.1,02.7,0685.1,31.1
2021-04-27T08:10:00Z,00040200,00000000,0002.15,0001.31,0000.99,0000.49,0000.32,0000.15,0000.53,0000.71,0000.24,18.1,24.8,04.0,02.7,0685.1,31.1
2021-04-27T08:11:00Z,00040200,00000000,0001.84,0001.53,0000.81,0000.27,0000.22,0000.15,0000.82,0000.71,0000.79,18.1,24.8,04.3,02.8,0685.1,31.1
2021-04-27T08:12:00Z,00040200,00000000,0002.04,0001.09,0000.68,0000.30,0000.26,-000.06,0000.76,0000.70,0000.44,18.2,24.8,04.3,02.8,0685.1,31.1
2021-04-27T08:13:00Z,00040200,00000000,0002.25,0001.22,0000.95,-000.11,0000.27,0000.00,0000.57,0000.64,0000.40,18.2,24.8,04.3,02.9,0685.1,31.1
2021-04-27T08:14:00Z,00040200,00000000,0002.08,0001.24,0001.15,0000.38,0000.24,0000.13,0000.81,-000.01,0000.59,18.2,24.8,04.4,02.9,0685.1,31.1
2021-04-27T08:15:00Z,00040200,00000000,0002.04,0001.17,0001.06,0000.79,0000.47,0000.15,0000.91,0000.96,0000.55,18.2,24.8,04.4,02.9,0685.1,31.1
2021-04-27T08:16:00Z,00040200,00000000,0001.82,0001.07,0001.04,-000.01,0000.31,0000.17,0000.76,0001.01,0000.78,18.2,24.8,04.4,03.0,0685.1,31.1
2021-04-27T08:17:00Z,00040200,00000000,0002.50,0001.30,0001.23,-000.21,0000.44,0000.17,0000.66,0000.13,0000.14,18.2,24.8,04.4,03.0,0685.2,31.1
2021-04-27T08:18:00Z,00040200,00000000,0002.29,0001.11,0001.39,0000.39,0000.36,0000.23,0000.81,0000.68,0000.31,18.1,24.8,04.5,03.0,0685.2,31.0
2021-04-27T08:19:00Z,00040200,00000000,0002.68,0001.30,0001.09,0000.16,0000.51,0000.03,0000.55,0000.51,0000.84,18.1,24.7,04.5,03.0,0685.2,31.0
2021-04-27T08:20:00Z,00040200,00000000,0002.69,0001.48,0000.93,0000.40,0000.38,-000.00,0000.71,0000.92,0000.34,18.1,24.7,04.5,03.0,0685.2,31.0
2021-04-27T08:21:00Z,00040200,00000000,0001.77,0001.50,0000.94,0000.68,0000.48,0000.18,0000.92,0000.77,0000.55,18.0,24.7,04.6,03.1,0685.2,31.0
2021-04-27T08:22:00Z,00040200,00000000,0000.76,0001.39,0000.84,0000.35,0000.18,-000.06,0000.90,0000.78,0000.59,18.0,24.7,04.7,03.2,0685.2,31.0
2021-04-27T08:23:00Z,00040200,00000000,0001.36,0001.10,0000.89,0000.62,0000.43,0000.22,0000.26,0000.83,0000.52,18.1,24.7,04.9,03.3,0685.2,31.0
2021-04-27T08:24:00Z,00040200,00000000,0002.36,0001.33,0000.93,0000.35,0000.22,0000.27,0001.18,0000.73,0000.66,18.1,24.7,05.0,03.3,0685.2,31.1
2021-04-27T08:25:00Z,00040200,00000000,0002.04,0001.36,0000.77,0000.52,0000.33,-000.13,0000.32,0000.50,0000.74,18.1,24.7,05.1,03.4,0685.2,31.1
2021-04-27T08:26:00Z,00040200,00000000,0002.14,0001.25,0000.52,0000.66,0000.17,-000.03,0000.94,0000.86,0000.51,18.1,24.7,05.2,03.5,0685.2,31.1
2021-04-27T08:27:00Z,00040200,00000000,0002.22,0001.11,0000.65,0000.32,0000.30,-000.04,0000.70,0000.53,0000.17,18.1,24.8,05.3,03.5,0685.2,31.1
2021-04-27T08:28:00Z,00040200,00000000,0001.81,0001.31,0000.97,0000.39,0000.01,0000.19,0000.44,0000.35,0000.42,18.1,24.7,05.3,03.5,0685.2,31.1
2021-04-27T08:29:00Z,00040200,00000000,0002.07,0001.12,0000.83,0000.32,0000.26,0000.27,0000.09,0000.47,0000.11,18.2,24.8,05.2,03.5,0685.2,31.1
2021-04-27T08:30:00Z,00040200,00000000,0001.72,0001.46,0000.67,0000.26,0000.42,0000.39,0000.90,0000.52,0000.63,18.2,24.7,05.1,03.4,0685.2,31.1
2021-04-27T08:31:00Z,00040200,00000000,0002.07,0001.19,0000.84,0000.68,0000.09,0000.07,0000.39,0000.43,0000.12,18.2,24.8,05.1,03.4,0685.2,31.1
2021-04-27T08:32:00Z,00040200,00000000,0002.21,0001.37,0000.74,0000.09,0000.29,0000.01,0000.31,0000.24,0000.49,18.2,24.8,05.1,03.4,0685.2,31.1
2021-04-27T08:33:00Z,00040200,00000000,0001.84,0001.17,0000.79,0000.21,0000.32,-000.12,0000.62,0000.85,0000.42,18.2,24.8,05.1,03.4,0685.2,31.1
2021-04-27T08:34:00Z,00040200,00000000,0001.35,0001.25,0000.63,-000.58,0000.08,0000.05,0000.84,0000.24,0000.52,18.2,24.8,05.1,03.4,0685.2,31.1
2021-04-27T08:35:00Z,00040200,00000000,0002.02,0001.14,0000.97,0000.51,0000.13,0000.15,0000.71,0000.93,0000.27,18.3,24.8,05.1,03.4,0685.2,31.1
2021-04-27T08:36:00Z,00040200,00000000,0002.14,0001.09,0000.68,0000.44,0000.35,0000.38,0000.50,0000.42,0000.48,18.3,24.8,05.2,03.5,0685.2,31.1
2021-04-27T08:37:00Z,00040200,00000000,0001.69,0001.39,0000.85,0000.58,0000.15,0000.23,0000.93,0000.73,0000.64,18.3,24.8,05.2,03.5,0685.2,31.1
2021-04-27T08:38:00Z,00040200,00000000,0001.85,0001.21,0000.92,0000.29,0000.56,0000.20,0000.50,0000.47,0000.66,18.3,24.8,05.3,03.6,0685.2,31.1
2021-04-27T08:39:00Z,00040200,00000000,0001.96,0001.02,0000.88,0000.67,0000.11,0000.21,0000.68,0000.74,0000.51,18.3,24.8,05.4,03.6,0685.2,31.1
2021-04-27T08:40:00Z,00040200,00000000,0002.27,0001.38,0001.00,0000.11,0000.23,0000.25,0000.82,0001.11,0000.55,18.3,24.8,05.5,03.7,0685.3,31.2
2021-04-27T08:41:00Z,00040200,00000000,0001.22,0001.57,0000.85,0000.61,0000.37,0000.15,0001.33,0000.75,0000.75,18.3,24.8,05.7,03.8,0685.3,31.2
2021-04-27T08:42:00Z,00040200,00000000,0001.64,0001.33,0001.00,0000.39,0000.14,0000.44,0000.68,0000.85,0000.27,18.3,24.8,05.8,03.9,0685.3,31.1
2021-04-27T08:43:00Z,00040200,00000000,0001.63,0001.39,0000.78,0000.41,0000.26,0000.38,0000.85,0000.74,0000.85,18.3,24.9,06.0,04.0,0685.3,31.1
2021-04-27T08:44:00Z,00040200,00000000,0002.17,0001.15,0000.92,0000.48,0000.27,0000.17,0000.46,0000.67,0000.38,18.4,24.9,06.1,04.1,0685.3,31.2
2021-04-27T08:45:00Z,00040200,00000000,0001.94,0001.31,0000.58,0000.39,0000.33,0000.01,0000.78,0000.75,0000.74,18.4,24.9,06.1,04.1,0685.3,31.2
2021-04-27T08:46:00Z,00040200,00000000,0001.74,0001.17,0000.65,0000.57,0000.38,-000.24,0000.62,0000.33,0000.32,18.4,24.9,05.9,04.0,0685.3,31.2
2021-04-27T08:47:00Z,00040200,00000000,0001.72,0000.93,0000.73,0000.00,0000.27,0000.10,0000.31,0000.44,0000.50,18.4,24.9,06.0,04.0,0685.3,31.2
2021-04-27T08:48:00Z,00040200,00000000,0001.61,0001.35,0001.20,0000.21,0000.23,0000.27,0000.68,0000.17,0000.18,18.4,24.9,05.8,03.9,0685.3,31.2
2021-04-27T08:49:00Z,00040200,00000000,0002.15,0001.15,0001.31,-000.14,0000.23,0000.35,0000.65,0000.70,0000.18,18.5,24.9,05.9,04.0,0685.3,31.1
2021-04-27T08:50:00Z,00040200,00000000,0001.58,0001.35,0001.03,0000.82,0000.45,-000.11,0000.26,0000.65,0000.64,18.5,24.9,05.8,03.9,0685.3,31.1
2021-04-27T08:51:00Z,00040200,00000000,0002.01,0001.40,0000.95,0000.70,0000.37,0000.27,0001.12,0000.35,0000.48,18.5,24.9,05.7,03.9,0685.3,31.2
2021-04-27T08:52:00Z,00040200,00000000,0001.63,0001.19,0000.82,0000.57,0000.37,0000.38,0000.58,0001.06,0000.80,18.5,24.9,05.9,03.9,0685.3,31.2
2021-04-27T08:53:00Z,00040200,00000000,0001.24,0001.53,0000.82,0000.27,0000.34,0000.20,0000.87,0000.78,0000.42,18.5,25.0,05.9,04.0,0685.3,31.2
2021-04-27T08:54:00Z,00040200,00000000,0002.08,0001.24,0000.65,0000.41,0000.15,-000.20,0000.69,0000.30,0000.26,18.5,25.0,06.1,04.1,0685.3,31.2
2021-04-27T08:55:00Z,00040200,00000000,0002.43,0001.05,0000.90,0000.55,0000.36,-000.06,0000.95,0000.59,0000.65,18.5,25.0,06.1,04.1,0685.3,31.2
2021-04-27T08:56:00Z,00040200,00000000,0002.06,0001.31,0000.89,0000.58,0000.20,0000.16,0000.48,0000.91,0000.55,18.6,25.0,06.1,04.1,0685.3,31.2
2021-04-27T08:57:00Z,00040200,40000000,,,,,,,-000.43,-000.64,-000.34,18.6,25.1,06.4,04.3,0685.4,31.2
2021-04-27T08:58:00Z,00040200,60000000,,,,,,,0000.19,0000.22,-000.01,18.4,25.1,05.8,03.8,0684.3,31.2
2021-04-27T08:59:00Z,00040200,20000000,,,,,,,0000.37,0000.67,0000.39,18.4,25.2,05.9,03.9,0684.2,31.1
